Погода Санкт-Петербург

Погода Санкт-Петербург : погода сейчас, прогноз погоды и архив. Всё, что Вы хотите узнать о погоде Санкт-Петербург!

Хотите узнать прогноз погоды в Санкт-Петербурге? Тогда Вам сюда: Погода в Санкт-Петербурге

Поиск расширенной информации на нашем сайте:

Другие новости

Новости СМИ2

Главная страница сайта

Новости сайта

03.07.2017

Напоминаем, что на нашем специализированном сайте Метеоцентр.Азия вы можете получить высокодетализированные автоматические прогнозы погоды по пунктам России, СНГ и мира в авиационном формате (включающие направление и скорость ветра, видимость, явления погоды, количество и форму облачности, нижнюю и верхнюю границу облачности).


Погода Санкт-Петербург - сегодня

Время (UTC), дата Ветер
(°,м/с) 
Видим.   Явления Облачность Т
(°С)
Тd
(°С)
f(%) Тe
(°С)
Pmin
(гПа)
dP
(гПа)
Po
(мм)
O2
(г/м3)
Тmin Tmax R s Состояние
почвы
21 18.09.17 040 (СВ) 4000 м  слаб. дождь{морось}  10/10 200 м 
[Frnb|Ns]
+11.3 +10.4 94 +14  994.1  -2  745  286           
00 19.09.17 020 (С) 10 км  {дождь, морось}  10/10 240 м 
[St]
+11.7 +11 95 +16  993.7  -0.4  745  286           
03 19.09.17 360 (С) 10 км    10/10 270 м 
[St]
+10.8 +10 95 +12  994.5  0.8  745  287  +10.8       
06 19.09.17 360 (С) 10 км  слаб. дождь  10/10 360 м 
[Sc diur, vesp|Ac As]
+9.8 +7.9 88 +9  997.6  3.1  748  289  +9.8        влажная 
09 19.09.17 320 (СЗ) 4000 м  слаб. морось  10/10 270 м 
[Sc diur, vesp]
+9.4 +7.6 89 +9  1002  3.1  751  291           
12 19.09.17 300 (СЗ) 10 км    10/10 480 м 
[Sc]
+10.3 +7 80 +10  1006.3  4.3  754  292           
15 19.09.17 280 (З) 10 км    9/8 800 м средняя 
[Sc|Ac trans]
+10.6 +6.4 75 +11  1009.3  756  292         
18 19.09.17 240 (ЮЗ) 10 км    9/8 600 м средняя 
[Sc|Ac trans]
+10.5 +7.5 82 +11  1011.4  2.7  758  293    +11.6       
21 19.09.17 230 (ЮЗ) 10 км    1/0 средняя 
[Ac trans]
+9.5 +7.4 87 +10  1013.1  1.7  759  294           
00 20.09.17 190 (Ю) 10 км    1/0 средняя 
[Ac trans]
+8.4 +7 91 +9  1014.7  1.6  761  296           
03 20.09.17 тихо ()   10 км    1/0 средняя 
[Ac trans]
+7.1 +6.3 95 +7  1016.1  1.4  761  298  +7    0.0     
06 20.09.17 190 (Ю) 10 км    9/0 средняя 
[Ac As]
+10.1 +7.9 86 +11  1018  1.9  763  295  +6.9        влажная 
09 20.09.17 300 (СЗ) 10 км    6/6 360 м 
[Sc]
+12.3 +7.5 72 +14  1019.6  1.7  764  293           
12 20.09.17 180 (Ю) 10 км    8/6 360 м 
[Sc]
+14.4 +8 65 +16  1020.9  1.3  765  292           
15 20.09.17 тихо ()   10 км    9/9 420 м 
[Sc]
+14.2 +9.5 73 +14  1021.9  0.9  766  292           
18 20.09.17 100 (В) 10 км    6/0 средняя 
[Ac As]
+12.6 +9.6 82 +14  1023.5  1.7  767  294    +15.4       
21 20.09.17 тихо ()   10 км    6/0 средняя 
[Ac As]
+11 +9.2 89 +11  1025.3  1.7  768  296           
00 21.09.17 тихо ()   10 км    ясно 
+9.5 +8.6 94 +10  1026.9  1.6  770  298           
03 21.09.17 тихо ()   4000 м  дымка  8/0 средняя 
[Ac As]
+8.3 +7.5 95 +8  1028.1  1.2  770  300  +8.3         
06 21.09.17 080 (В) 10 км    4/0 средняя 
[Ac As]
+10.7 +9.4 92 +12  1029.3  1.3  771  297  +8.2        влажная 
09 21.09.17 090 (В) 10 км    3/0 средняя, верхняя 
[Ac As|Ci fib]
+15.6 +9.4 67 +17  1029.5  0.2  772  292           
12 21.09.17 070 (В) 10 км    5/5 300 м верхняя 
[Cu hum|Ci fib]
+17.5 +8.7 56 +19  1029.8  0.3  772  291           
15 21.09.17 070 (В) 10 км    4/0 средняя 
[Ac As]
+14.4 +9.5 72 +16  1029.9  -0.1  772  294           
18 21.09.17 060 (СВ) 10 км    5/0 средняя 
[As trans]
+11.9 +9.1 83 +13  1030.5  0.5  772  297    +17.8       
21 21.09.17 080 (В) 10 км    5/0 средняя 
[Ac trans]
+10.8 +7.6 81 +12  1031.1  0.6  773  298           
Время (UTC), дата Ветер
(°,м/с) 
Видим.   Явления Облачность Т
(°С)
Тd
(°С)
f(%) Тe
(°С)
Pmin
(гПа)
dP
(гПа)
Po
(мм)
O2
(г/м3)
Тmin Tmax R s Состояние
почвы

Для получения пояснительной информации подведите курсор к названию столбца.

ПОГОДА Санкт-Петербург - архив

Всё, что Вы хотите узнать о погоде Санкт-Петербург - удобно и подробно!

Выберите нужную дату (начиная с 1 января 2015* года) и нажмите кнопку "Найти".
Будут отображены архивные сводки погоды по пункту Санкт-Петербург, начиная с указанной даты.


Отображать данные в формате CSV (для использования в таблицах Excel)


Внимание! Наш архив погоды предназначен исключительно для личного некоммерческого использования в познавательных целях. Если Вам необходимы официальные справки о состоянии погоды (для производственных, юридических, коммерческих и т.п. целей), обращайтесь в органы Росгидромета.

*Примечание: данная дата относится к архиву по метеостанциям СССР (Россия, СНГ, Балтия).
Архив по метеостанциям Зарубежной Европы и Азии (кроме Китая) хранится 10 дней, по другим регионам земного шара (Китай, Африка, Америка, Австралия, Океания) - 1 день.

Санкт-Петербург - район местоположения метеостанции


Название, широта, долгота, высота метеостанции:
Санкт-Петербург (ИЦП) 60°ш. 30.3°д. 6 м над ур. моря [Российская Федерация]

Дополнительная информация

В oтличие oт бoльшинства пoгoдных сайтoв мы публикуем пoдрoбную метеoинфoрмацию в детальнoм прoфессиoнальнoм фoрмате.

Характеристики температуры и влажнoсти вoздуха измеряются на высoте 2 м в тени вдали oт зданий и деревьев.
Скoрoсть ветра измеряется на высoте 10 м (на урoвне рoста челoвека скoрoсть ветра ниже в 1.5-2 раза). Если метеoстанция нахoдится в гoрoде или в лесу, тo скoрoсть ветра занижена на 2-4 м/с пo сравнению с oткрытым местoм. Скoрoсть ветра над акватoриями крупных рек и oзёр, а также на вершинах хoлмoв на 2-5 м/с выше, чем в oбычных услoвиях.
Атмoсфернoе давление в разных тoчках местнoсти мoжет значительнo oтличаться oт давления на метеoстанции, в зависимoсти oт услoвий рельефа (при пoдъёме на 10 м давление пoнижается примернo на 1 мм рт.ст.).